Precipitable_Water
0.84 0.81 0.76 0.78 0.84 0.87 0.85 0.86 0.83 0.83 0.87 0.92 0.96 1.00 1.04 1.08 1.13 1.19 1.23 1.24 1.23 1.22 1.19 1.15 1.17 1.18 1.19 1.23 1.22 1.11 0.98 0.84 0.72 0.57 0.48 0.44 0.44 0.48 0.51 0.53 0.51 0.56 0.49 0.42 0.41 0.35 0.30 0.29 0.29 0.36 0.37 0.36 0.34 0.33 0.40 0.39 0.39 0.37 0.28 0.25 0.21 0.22 0.18 0.19 0.17 0.17 0.18 0.14 0.16 0.18 0.19 0.18 0.15 0.19 0.20 0.23 0.20 0.20 0.21 0.21 0.25 0.32 0.35 0.42 0.44 0.50 0.53 0.64
0.83 0.77 0.78 0.85 0.87 0.84 0.85 0.84 0.83 0.83 0.83 0.87 0.91 0.94 0.97 1.02 1.08 1.13 1.18 1.22 1.22 1.19 1.14 1.10 1.08 1.10 1.12 1.13 1.13 1.04 0.90 0.76 0.60 0.51 0.43 0.48 0.47 0.52 0.53 0.54 0.54 0.52 0.45 0.37 0.35 0.32 0.28 0.26 0.30 0.35 0.34 0.30 0.36 0.31 0.39 0.34 0.39 0.30 0.28 0.26 0.21 0.22 0.21 0.24 0.21 0.20 0.18 0.17 0.18 0.19 0.20 0.19 0.18 0.19 0.21 0.17 0.17 0.18 0.17 0.18 0.21 0.21 0.28 0.39 0.45 0.49 0.55 0.58
0.80 0.75 0.82 0.89 0.85 0.83 0.85 0.83 0.83 0.83 0.84 0.83 0.84 0.86 0.88 0.94 0.99 1.03 1.11 1.19 1.20 1.16 1.10 1.06 1.03 1.05 1.07 1.04 1.02 0.96 0.83 0.63 0.52 0.41 0.39 0.46 0.54 0.57 0.56 0.54 0.53 0.50 0.40 0.35 0.37 0.34 0.28 0.26 0.31 0.33 0.32 0.28 0.31 0.28 0.34 0.33 0.34 0.32 0.28 0.23 0.23 0.25 0.24 0.24 0.24 0.21 0.20 0.20 0.18 0.18 0.19 0.19 0.20 0.19 0.23 0.17 0.17 0.18 0.15 0.15 0.17 0.18 0.18 0.26 0.36 0.44 0.54 0.56
0.76 0.76 0.82 0.88 0.86 0.84 0.84 0.83 0.83 0.83 0.84 0.82 0.82 0.83 0.83 0.87 0.91 0.95 1.03 1.12 1.14 1.11 1.07 1.00 0.99 1.00 0.97 0.89 0.92 0.87 0.69 0.52 0.41 0.36 0.43 0.50 0.52 0.62 0.57 0.53 0.53 0.49 0.41 0.40 0.39 0.33 0.32 0.31 0.34 0.32 0.28 0.27 0.29 0.32 0.29 0.33 0.29 0.31 0.27 0.24 0.25 0.26 0.22 0.23 0.25 0.23 0.22 0.22 0.19 0.18 0.20 0.18 0.19 0.20 0.20 0.18 0.16 0.16 0.17 0.18 0.16 0.16 0.17 0.22 0.33 0.39 0.49 0.52
0.79 0.79 0.84 0.85 0.82 0.81 0.83 0.83 0.83 0.85 0.85 0.83 0.82 0.83 0.85 0.89 0.91 0.91 0.98 1.04 1.07 1.04 0.98 0.91 0.90 0.88 0.81 0.77 0.79 0.78 0.51 0.39 0.34 0.40 0.56 0.60 0.57 0.61 0.56 0.56 0.53 0.48 0.42 0.40 0.37 0.34 0.31 0.30 0.32 0.30 0.27 0.24 0.27 0.28 0.28 0.32 0.33 0.30 0.26 0.28 0.28 0.26 0.22 0.25 0.26 0.25 0.22 0.23 0.20 0.19 0.18 0.17 0.21 0.20 0.18 0.18 0.14 0.14 0.16 0.18 0.20 0.19 0.21 0.24 0.28 0.34 0.45 0.48
0.83 0.81 0.81 0.80 0.78 0.81 0.81 0.82 0.85 0.85 0.85 0.84 0.83 0.84 0.85 0.90 0.89 0.90 0.96 0.98 0.94 0.90 0.87 0.80 0.77 0.73 0.72 0.73 0.76 0.62 0.43 0.28 0.41 0.45 0.63 0.65 0.62 0.62 0.56 0.57 0.52 0.46 0.41 0.35 0.32 0.31 0.29 0.29 0.29 0.25 0.25 0.24 0.24 0.23 0.28 0.30 0.32 0.23 0.26 0.27 0.29 0.28 0.23 0.26 0.26 0.25 0.24 0.22 0.20 0.18 0.20 0.20 0.18 0.16 0.18 0.18 0.15 0.17 0.20 0.21 0.21 0.22 0.24 0.30 0.35 0.38 0.39 0.43
0.82 0.81 0.80 0.77 0.75 0.79 0.81 0.82 0.84 0.85 0.85 0.84 0.83 0.83 0.85 0.86 0.85 0.85 0.88 0.89 0.87 0.79 0.70 0.66 0.69 0.70 0.68 0.71 0.68 0.53 0.38 0.31 0.46 0.57 0.63 0.61 0.63 0.59 0.57 0.55 0.50 0.42 0.38 0.32 0.30 0.27 0.27 0.27 0.27 0.23 0.23 0.23 0.24 0.25 0.28 0.28 0.29 0.26 0.23 0.26 0.27 0.28 0.25 0.26 0.25 0.26 0.24 0.22 0.20 0.21 0.22 0.18 0.18 0.14 0.18 0.15 0.16 0.19 0.20 0.22 0.22 0.22 0.26 0.34 0.31 0.36 0.35 0.37
0.79 0.77 0.75 0.73 0.71 0.80 0.82 0.80 0.80 0.82 0.84 0.84 0.83 0.82 0.82 0.81 0.81 0.83 0.85 0.80 0.74 0.66 0.63 0.65 0.68 0.70 0.69 0.57 0.49 0.42 0.37 0.32 0.48 0.59 0.60 0.61 0.59 0.54 0.53 0.50 0.44 0.40 0.34 0.31 0.29 0.26 0.26 0.24 0.23 0.24 0.22 0.20 0.23 0.24 0.27 0.26 0.26 0.23 0.23 0.26 0.27 0.27 0.26 0.25 0.25 0.25 0.24 0.22 0.23 0.22 0.19 0.18 0.19 0.17 0.17 0.14 0.15 0.19 0.20 0.24 0.23 0.25 0.28 0.31 0.31 0.34 0.38 0.39
0.79 0.77 0.74 0.71 0.69 0.76 0.80 0.78 0.79 0.80 0.82 0.82 0.81 0.81 0.79 0.79 0.76 0.72 0.71 0.73 0.71 0.67 0.64 0.66 0.68 0.69 0.68 0.51 0.41 0.35 0.32 0.38 0.54 0.58 0.59 0.55 0.53 0.49 0.49 0.40 0.41 0.35 0.33 0.33 0.32 0.28 0.26 0.24 0.23 0.22 0.19 0.20 0.25 0.23 0.25 0.23 0.20 0.24 0.24 0.26 0.26 0.26 0.26 0.25 0.23 0.23 0.23 0.22 0.22 0.19 0.18 0.20 0.20 0.21 0.15 0.15 0.17 0.18 0.21 0.22 0.25 0.26 0.26 0.28 0.29 0.33 0.36 0.37
0.79 0.78 0.74 0.69 0.68 0.71 0.74 0.74 0.77 0.79 0.78 0.78 0.77 0.74 0.70 0.68 0.68 0.70 0.71 0.72 0.72 0.68 0.64 0.65 0.70 0.68 0.55 0.42 0.39 0.30 0.32 0.53 0.55 0.58 0.56 0.55 0.52 0.48 0.44 0.40 0.37 0.34 0.31 0.31 0.31 0.28 0.24 0.24 0.23 0.23 0.22 0.21 0.25 0.23 0.25 0.22 0.20 0.25 0.25 0.25 0.25 0.26 0.25 0.25 0.22 0.22 0.23 0.22 0.23 0.19 0.18 0.18 0.21 0.18 0.11 0.15 0.16 0.18 0.19 0.20 0.25 0.24 0.22 0.27 0.30 0.34 0.37 0.38
0.80 0.76 0.72 0.68 0.69 0.71 0.72 0.70 0.71 0.71 0.70 0.71 0.70 0.68 0.67 0.69 0.72 0.72 0.73 0.73 0.72 0.68 0.65 0.65 0.67 0.62 0.45 0.40 0.33 0.27 0.56 0.52 0.55 0.54 0.54 0.54 0.50 0.44 0.40 0.37 0.36 0.32 0.30 0.30 0.29 0.28 0.26 0.26 0.25 0.24 0.22 0.20 0.23 0.23 0.23 0.22 0.25 0.24 0.24 0.24 0.24 0.25 0.25 0.24 0.23 0.21 0.22 0.20 0.23 0.21 0.18 0.19 0.20 0.18 0.12 0.15 0.18 0.19 0.16 0.18 0.21 0.22 0.23 0.26 0.30 0.33 0.38 0.40
0.80 0.76 0.71 0.70 0.71 0.72 0.72 0.71 0.73 0.71 0.69 0.71 0.70 0.69 0.70 0.73 0.75 0.74 0.75 0.74 0.71 0.69 0.66 0.66 0.63 0.55 0.44 0.36 0.31 0.29 0.56 0.54 0.56 0.54 0.52 0.54 0.49 0.47 0.45 0.40 0.35 0.33 0.29 0.27 0.29 0.28 0.28 0.26 0.25 0.22 0.18 0.24 0.19 0.24 0.23 0.26 0.24 0.23 0.23 0.18 0.20 0.22 0.20 0.22 0.20 0.20 0.20 0.18 0.22 0.21 0.17 0.15 0.16 0.12 0.14 0.16 0.17 0.18 0.17 0.17 0.19 0.20 0.23 0.26 0.29 0.32 0.35 0.37
0.80 0.77 0.73 0.72 0.71 0.71 0.72 0.72 0.72 0.71 0.69 0.70 0.71 0.71 0.73 0.76 0.77 0.75 0.75 0.74 0.73 0.68 0.65 0.64 0.59 0.53 0.40 0.30 0.32 0.45 0.59 0.58 0.56 0.53 0.51 0.55 0.52 0.51 0.48 0.42 0.38 0.36 0.33 0.30 0.29 0.30 0.29 0.27 0.25 0.21 0.23 0.22 0.21 0.18 0.25 0.26 0.23 0.23 0.22 0.19 0.18 0.17 0.16 0.20 0.21 0.21 0.19 0.18 0.20 0.19 0.10 0.10 0.11 0.13 0.15 0.16 0.16 0.16 0.15 0.15 0.17 0.19 0.22 0.25 0.27 0.29 0.31 0.37
0.78 0.75 0.73 0.73 0.72 0.70 0.71 0.72 0.71 0.70 0.70 0.69 0.71 0.72 0.75 0.78 0.79 0.76 0.75 0.72 0.73 0.68 0.65 0.62 0.58 0.50 0.36 0.30 0.45 0.52 0.59 0.61 0.57 0.49 0.48 0.53 0.48 0.44 0.43 0.42 0.40 0.38 0.37 0.34 0.34 0.33 0.28 0.29 0.26 0.25 0.27 0.22 0.20 0.28 0.23 0.22 0.23 0.18 0.20 0.19 0.15 0.13 0.13 0.18 0.19 0.20 0.16 0.20 0.19 0.16 0.09 0.09 0.10 0.11 0.14 0.16 0.16 0.15 0.13 0.14 0.15 0.17 0.19 0.21 0.24 0.26 0.27 0.31
0.77 0.73 0.72 0.72 0.72 0.71 0.71 0.71 0.70 0.70 0.71 0.69 0.69 0.73 0.77 0.78 0.79 0.77 0.74 0.72 0.71 0.68 0.64 0.62 0.56 0.41 0.32 0.31 0.49 0.57 0.60 0.59 0.49 0.46 0.50 0.47 0.43 0.38 0.37 0.38 0.37 0.37 0.37 0.37 0.33 0.33 0.30 0.29 0.26 0.23 0.21 0.26 0.25 0.21 0.18 0.18 0.19 0.18 0.14 0.12 0.15 0.12 0.12 0.16 0.20 0.19 0.14 0.18 0.19 0.15 0.10 0.09 0.11 0.11 0.14 0.17 0.17 0.15 0.13 0.15 0.16 0.16 0.17 0.18 0.19 0.22 0.24 0.26
0.78 0.73 0.71 0.71 0.72 0.72 0.71 0.70 0.69 0.70 0.70 0.69 0.70 0.74 0.78 0.80 0.78 0.77 0.74 0.72 0.70 0.67 0.63 0.47 0.43 0.37 0.30 0.28 0.39 0.60 0.48 0.40 0.43 0.50 0.53 0.50 0.43 0.35 0.37 0.36 0.37 0.36 0.36 0.34 0.37 0.34 0.32 0.28 0.23 0.24 0.23 0.24 0.20 0.17 0.16 0.15 0.16 0.17 0.13 0.11 0.11 0.12 0.12 0.13 0.18 0.20 0.20 0.18 0.19 0.14 0.09 0.10 0.12 0.13 0.16 0.17 0.17 0.16 0.14 0.15 0.16 0.17 0.17 0.18 0.18 0.18 0.19 0.21
0.77 0.74 0.71 0.71 0.73 0.72 0.71 0.69 0.69 0.70 0.69 0.69 0.71 0.75 0.79 0.79 0.79 0.77 0.73 0.72 0.67 0.66 0.54 0.38 0.41 0.38 0.26 0.35 0.54 0.40 0.35 0.41 0.55 0.49 0.49 0.51 0.45 0.40 0.36 0.35 0.32 0.32 0.35 0.34 0.34 0.31 0.30 0.25 0.26 0.24 0.25 0.20 0.19 0.17 0.13 0.12 0.11 0.12 0.14 0.11 0.13 0.11 0.11 0.11 0.17 0.20 0.20 0.18 0.14 0.16 0.11 0.10 0.12 0.15 0.17 0.17 0.17 0.16 0.15 0.15 0.16 0.17 0.18 0.18 0.18 0.18 0.18 0.18
0.77 0.73 0.71 0.71 0.72 0.72 0.70 0.69 0.68 0.68 0.69 0.69 0.70 0.73 0.74 0.80 0.82 0.76 0.69 0.66 0.65 0.59 0.52 0.50 0.41 0.31 0.28 0.41 0.31 0.31 0.39 0.41 0.47 0.47 0.48 0.49 0.46 0.41 0.37 0.32 0.33 0.31 0.31 0.29 0.31 0.26 0.28 0.22 0.24 0.18 0.20 0.19 0.18 0.15 0.11 0.09 0.09 0.09 0.10 0.10 0.11 0.13 0.12 0.11 0.11 0.17 0.18 0.18 0.14 0.14 0.13 0.11 0.11 0.13 0.15 0.17 0.18 0.17 0.16 0.16 0.17 0.18 0.19 0.20 0.20 0.19 0.18 0.18
0.78 0.73 0.71 0.71 0.72 0.72 0.72 0.70 0.68 0.69 0.69 0.70 0.71 0.79 0.82 0.84 0.78 0.71 0.56 0.54 0.42 0.35 0.30 0.30 0.29 0.22 0.21 0.28 0.39 0.39 0.39 0.48 0.51 0.47 0.41 0.42 0.43 0.42 0.39 0.37 0.33 0.28 0.25 0.23 0.24 0.25 0.25 0.22 0.22 0.18 0.15 0.16 0.16 0.14 0.11 0.11 0.12 0.11 0.11 0.10 0.10 0.10 0.10 0.10 0.13 0.20 0.19 0.16 0.14 0.13 0.11 0.11 0.12 0.13 0.14 0.16 0.18 0.17 0.17 0.18 0.18 0.18 0.19 0.20 0.20 0.19 0.19 0.19
0.78 0.74 0.72 0.71 0.71 0.72 0.72 0.70 0.69 0.69 0.70 0.68 0.70 0.73 0.65 0.50 0.48 0.44 0.52 0.44 0.36 0.34 0.34 0.31 0.31 0.33 0.32 0.34 0.36 0.45 0.50 0.53 0.41 0.44 0.44 0.45 0.39 0.37 0.35 0.34 0.30 0.29 0.23 0.19 0.22 0.24 0.25 0.17 0.14 0.13 0.13 0.15 0.16 0.15 0.14 0.14 0.14 0.14 0.13 0.12 0.11 0.11 0.12 0.14 0.15 0.19 0.22 0.17 0.15 0.15 0.15 0.14 0.13 0.14 0.15 0.16 0.18 0.17 0.17 0.15 0.15 0.16 0.17 0.18 0.18 0.18 0.19 0.19
0.79 0.75 0.72 0.71 0.71 0.72 0.72 0.70 0.71 0.71 0.72 0.70 0.68 0.50 0.38 0.39 0.34 0.32 0.40 0.41 0.43 0.42 0.39 0.34 0.32 0.31 0.32 0.37 0.41 0.38 0.33 0.39 0.45 0.42 0.42 0.50 0.41 0.34 0.31 0.30 0.26 0.22 0.22 0.22 0.20 0.27 0.22 0.15 0.14 0.15 0.15 0.15 0.16 0.17 0.16 0.15 0.15 0.13 0.13 0.12 0.11 0.12 0.10 0.15 0.15 0.19 0.22 0.16 0.15 0.17 0.15 0.14 0.15 0.16 0.16 0.18 0.17 0.15 0.15 0.15 0.15 0.15 0.16 0.16 0.16 0.16 0.16 0.18
0.81 0.77 0.74 0.71 0.71 0.72 0.71 0.71 0.71 0.72 0.75 0.73 0.63 0.43 0.43 0.44 0.48 0.47 0.41 0.32 0.39 0.42 0.41 0.38 0.40 0.36 0.46 0.43 0.45 0.45 0.38 0.34 0.37 0.41 0.46 0.43 0.36 0.29 0.30 0.28 0.23 0.19 0.24 0.23 0.21 0.19 0.17 0.14 0.15 0.17 0.18 0.18 0.18 0.18 0.17 0.15 0.14 0.14 0.12 0.12 0.11 0.12 0.15 0.18 0.18 0.20 0.21 0.18 0.14 0.17 0.14 0.14 0.15 0.16 0.17 0.17 0.16 0.16 0.17 0.16 0.15 0.15 0.15 0.15 0.15 0.15 0.16 0.17
0.82 0.79 0.76 0.73 0.71 0.71 0.71 0.71 0.71 0.74 0.69 0.61 0.53 0.48 0.43 0.51 0.60 0.57 0.43 0.35 0.32 0.42 0.39 0.37 0.33 0.35 0.37 0.45 0.46 0.47 0.30 0.29 0.29 0.37 0.40 0.40 0.32 0.30 0.29 0.25 0.22 0.22 0.22 0.21 0.16 0.16 0.14 0.15 0.18 0.20 0.19 0.17 0.17 0.17 0.16 0.15 0.15 0.14 0.13 0.12 0.10 0.13 0.12 0.10 0.17 0.19 0.20 0.18 0.15 0.17 0.14 0.13 0.15 0.15 0.15 0.16 0.16 0.15 0.17 0.17 0.16 0.17 0.15 0.15 0.15 0.16 0.15 0.15
0.83 0.80 0.77 0.73 0.72 0.69 0.70 0.69 0.73 0.70 0.61 0.58 0.54 0.48 0.54 0.60 0.59 0.49 0.38 0.30 0.28 0.34 0.37 0.37 0.38 0.35 0.35 0.35 0.46 0.39 0.30 0.31 0.33 0.32 0.46 0.38 0.28 0.33 0.29 0.25 0.23 0.21 0.19 0.19 0.18 0.15 0.14 0.17 0.21 0.20 0.19 0.17 0.15 0.17 0.16 0.14 0.13 0.15 0.14 0.13 0.12 0.13 0.13 0.13 0.14 0.18 0.20 0.20 0.19 0.16 0.13 0.11 0.11 0.10 0.11 0.13 0.15 0.14 0.14 0.14 0.15 0.15 0.15 0.16 0.16 0.16 0.16 0.14
0.83 0.81 0.78 0.74 0.71 0.71 0.68 0.69 0.61 0.57 0.62 0.57 0.53 0.58 0.57 0.59 0.57 0.51 0.37 0.32 0.31 0.30 0.44 0.38 0.44 0.39 0.41 0.53 0.49 0.34 0.34 0.35 0.37 0.41 0.43 0.39 0.31 0.28 0.26 0.30 0.24 0.19 0.20 0.21 0.19 0.17 0.17 0.21 0.22 0.19 0.19 0.18 0.17 0.16 0.16 0.15 0.13 0.14 0.16 0.15 0.14 0.15 0.15 0.16 0.18 0.17 0.14 0.14 0.16 0.14 0.09 0.08 0.10 0.11 0.11 0.12 0.12 0.11 0.13 0.13 0.13 0.14 0.15 0.15 0.14 0.15 0.16 0.16
0.84 0.82 0.79 0.75 0.73 0.71 0.73 0.55 0.51 0.59 0.52 0.43 0.49 0.58 0.57 0.59 0.58 0.51 0.36 0.28 0.24 0.30 0.36 0.27 0.40 0.32 0.52 0.38 0.43 0.37 0.35 0.28 0.41 0.43 0.45 0.43 0.42 0.30 0.28 0.25 0.25 0.19 0.22 0.20 0.19 0.19 0.18 0.24 0.21 0.18 0.17 0.17 0.17 0.16 0.17 0.17 0.14 0.13 0.14 0.19 0.18 0.18 0.18 0.18 0.17 0.15 0.11 0.10 0.15 0.19 0.10 0.08 0.11 0.10 0.11 0.11 0.12 0.11 0.13 0.12 0.14 0.15 0.16 0.17 0.17 0.17 0.18 0.17
0.85 0.83 0.80 0.76 0.74 0.74 0.56 0.41 0.60 0.57 0.40 0.39 0.54 0.60 0.59 0.57 0.58 0.48 0.32 0.26 0.22 0.32 0.28 0.40 0.32 0.38 0.46 0.43 0.40 0.36 0.21 0.25 0.43 0.46 0.42 0.45 0.35 0.39 0.25 0.23 0.24 0.27 0.27 0.26 0.20 0.17 0.22 0.22 0.21 0.20 0.18 0.17 0.16 0.14 0.17 0.17 0.14 0.12 0.19 0.20 0.20 0.19 0.17 0.17 0.17 0.15 0.13 0.17 0.17 0.17 0.14 0.10 0.09 0.10 0.12 0.13 0.11 0.11 0.11 0.12 0.14 0.16 0.17 0.17 0.18 0.19 0.19 0.19
0.86 0.85 0.80 0.77 0.74 0.74 0.58 0.60 0.53 0.43 0.37 0.47 0.55 0.58 0.61 0.56 0.53 0.40 0.29 0.22 0.21 0.36 0.28 0.35 0.34 0.54 0.44 0.44 0.41 0.29 0.32 0.37 0.27 0.37 0.46 0.46 0.41 0.34 0.29 0.24 0.22 0.22 0.25 0.22 0.14 0.22 0.22 0.20 0.19 0.18 0.17 0.16 0.14 0.16 0.18 0.19 0.15 0.16 0.21 0.22 0.20 0.20 0.19 0.19 0.17 0.16 0.15 0.14 0.11 0.14 0.17 0.10 0.09 0.10 0.13 0.13 0.10 0.10 0.11 0.12 0.14 0.16 0.17 0.18 0.19 0.21 0.22 0.23
0.87 0.85 0.81 0.80 0.79 0.76 0.74 0.60 0.51 0.39 0.52 0.55 0.56 0.58 0.57 0.54 0.42 0.29 0.24 0.21 0.36 0.32 0.46 0.32 0.54 0.46 0.41 0.41 0.35 0.36 0.34 0.37 0.25 0.35 0.44 0.44 0.42 0.36 0.26 0.28 0.27 0.26 0.28 0.23 0.17 0.22 0.26 0.23 0.22 0.21 0.17 0.15 0.18 0.20 0.20 0.20 0.16 0.21 0.24 0.24 0.23 0.22 0.21 0.19 0.16 0.15 0.14 0.11 0.09 0.11 0.14 0.09 0.08 0.09 0.10 0.11 0.10 0.09 0.10 0.13 0.15 0.17 0.18 0.19 0.19 0.21 0.22 0.24
0.87 0.85 0.84 0.83 0.79 0.72 0.69 0.67 0.51 0.54 0.59 0.61 0.57 0.56 0.54 0.42 0.30 0.23 0.21 0.19 0.36 0.28 0.36 0.39 0.38 0.34 0.39 0.31 0.32 0.35 0.31 0.33 0.36 0.38 0.40 0.35 0.37 0.38 0.35 0.38 0.29 0.26 0.25 0.27 0.25 0.27 0.29 0.32 0.31 0.24 0.20 0.21 0.22 0.23 0.23 0.23 0.22 0.26 0.23 0.20 0.20 0.19 0.18 0.18 0.17 0.15 0.13 0.09 0.10 0.13 0.15 0.11 0.08 0.09 0.09 0.09 0.09 0.11 0.12 0.15 0.17 0.18 0.19 0.20 0.21 0.22 0.23 0.24
0.86 0.86 0.86 0.86 0.66 0.68 0.68 0.49 0.52 0.62 0.63 0.60 0.56 0.50 0.40 0.32 0.23 0.20 0.18 0.24 0.34 0.35 0.39 0.37 0.35 0.41 0.33 0.29 0.26 0.35 0.34 0.34 0.33 0.34 0.30 0.35 0.32 0.34 0.33 0.29 0.34 0.26 0.25 0.24 0.23 0.28 0.29 0.29 0.26 0.28 0.31 0.28 0.27 0.22 0.26 0.26 0.25 0.23 0.20 0.18 0.17 0.16 0.18 0.16 0.15 0.16 0.10 0.08 0.12 0.14 0.14 0.14 0.08 0.09 0.10 0.12 0.14 0.14 0.14 0.14 0.16 0.17 0.18 0.20 0.21 0.22 0.24 0.25
0.85 0.85 0.89 0.83 0.78 0.81 0.58 0.45 0.58 0.67 0.62 0.58 0.50 0.38 0.29 0.21 0.24 0.18 0.19 0.35 0.25 0.32 0.32 0.32 0.37 0.35 0.32 0.31 0.28 0.29 0.29 0.33 0.34 0.31 0.26 0.27 0.26 0.25 0.25 0.20 0.23 0.18 0.18 0.19 0.19 0.26 0.23 0.24 0.29 0.30 0.34 0.27 0.23 0.21 0.23 0.24 0.24 0.22 0.20 0.18 0.13 0.12 0.13 0.10 0.12 0.09 0.09 0.09 0.12 0.15 0.16 0.12 0.10 0.10 0.12 0.13 0.14 0.15 0.16 0.17 0.17 0.18 0.18 0.20 0.22 0.23 0.24 0.25
0.83 0.85 0.89 0.85 0.82 0.74 0.75 0.72 0.71 0.66 0.63 0.53 0.41 0.33 0.23 0.18 0.15 0.19 0.22 0.27 0.25 0.33 0.31 0.37 0.34 0.35 0.33 0.30 0.28 0.31 0.34 0.25 0.34 0.31 0.30 0.29 0.25 0.25 0.28 0.25 0.26 0.19 0.14 0.19 0.19 0.19 0.21 0.28 0.28 0.29 0.29 0.31 0.26 0.17 0.20 0.19 0.22 0.20 0.18 0.16 0.12 0.10 0.10 0.08 0.10 0.10 0.10 0.12 0.14 0.15 0.18 0.11 0.12 0.13 0.14 0.13 0.15 0.17 0.17 0.18 0.19 0.19 0.19 0.21 0.22 0.24 0.25 0.26
0.84 0.86 0.80 0.82 0.82 0.83 0.84 0.77 0.74 0.68 0.55 0.47 0.34 0.26 0.23 0.16 0.14 0.23 0.22 0.25 0.26 0.36 0.36 0.34 0.36 0.37 0.34 0.27 0.29 0.32 0.26 0.34 0.32 0.30 0.30 0.26 0.26 0.22 0.25 0.27 0.27 0.22 0.20 0.21 0.16 0.17 0.13 0.15 0.21 0.25 0.20 0.31 0.26 0.23 0.20 0.18 0.20 0.20 0.22 0.18 0.13 0.11 0.10 0.08 0.09 0.08 0.08 0.10 0.13 0.17 0.12 0.09 0.10 0.10 0.18 0.16 0.17 0.18 0.19 0.20 0.20 0.21 0.22 0.23 0.24 0.25 0.26 0.26
0.89 0.88 0.87 0.84 0.86 0.88 0.86 0.79 0.74 0.68 0.54 0.38 0.29 0.22 0.17 0.14 0.17 0.17 0.20 0.25 0.29 0.33 0.33 0.38 0.34 0.33 0.32 0.32 0.34 0.34 0.33 0.29 0.36 0.32 0.29 0.26 0.23 0.23 0.22 0.22 0.26 0.26 0.24 0.17 0.21 0.19 0.15 0.15 0.23 0.31 0.30 0.31 0.25 0.29 0.30 0.25 0.23 0.25 0.24 0.22 0.17 0.14 0.15 0.10 0.11 0.10 0.10 0.10 0.11 0.13 0.11 0.12 0.11 0.17 0.19 0.20 0.20 0.19 0.20 0.20 0.21 0.21 0.22 0.24 0.24 0.25 0.26 0.26
0.92 0.87 0.87 0.77 0.79 0.82 0.87 0.82 0.76 0.66 0.49 0.33 0.24 0.19 0.16 0.17 0.16 0.20 0.19 0.27 0.30 0.27 0.32 0.36 0.35 0.31 0.31 0.31 0.35 0.32 0.37 0.31 0.35 0.33 0.30 0.28 0.27 0.23 0.25 0.25 0.24 0.25 0.20 0.16 0.20 0.16 0.18 0.15 0.26 0.29 0.33 0.30 0.29 0.31 0.29 0.30 0.16 0.23 0.22 0.18 0.18 0.21 0.17 0.14 0.13 0.15 0.13 0.11 0.09 0.14 0.12 0.12 0.15 0.14 0.16 0.17 0.18 0.18 0.19 0.20 0.20 0.22 0.23 0.24 0.25 0.26 0.26 0.27
0.84 0.88 0.73 0.75 0.78 0.88 0.88 0.85 0.77 0.62 0.47 0.31 0.22 0.17 0.20 0.22 0.26 0.23 0.25 0.23 0.26 0.29 0.28 0.25 0.31 0.30 0.29 0.29 0.31 0.32 0.33 0.36 0.35 0.33 0.27 0.32 0.27 0.28 0.26 0.26 0.28 0.26 0.26 0.21 0.20 0.24 0.14 0.15 0.27 0.26 0.24 0.31 0.35 0.33 0.32 0.30 0.28 0.24 0.18 0.20 0.23 0.23 0.19 0.14 0.11 0.13 0.11 0.09 0.09 0.12 0.09 0.09 0.10 0.08 0.13 0.15 0.15 0.16 0.18 0.19 0.20 0.21 0.23 0.25 0.25 0.26 0.27 0.27
0.83 0.78 0.74 0.74 0.83 0.92 0.90 0.86 0.74 0.60 0.43 0.30 0.21 0.21 0.28 0.22 0.29 0.28 0.30 0.27 0.28 0.29 0.25 0.23 0.27 0.34 0.29 0.30 0.30 0.32 0.36 0.30 0.33 0.33 0.29 0.32 0.25 0.32 0.27 0.25 0.29 0.27 0.27 0.27 0.20 0.22 0.22 0.16 0.23 0.28 0.28 0.31 0.35 0.32 0.28 0.31 0.31 0.24 0.21 0.26 0.18 0.15 0.13 0.15 0.13 0.10 0.09 0.09 0.09 0.10 0.11 0.10 0.10 0.09 0.11 0.11 0.13 0.14 0.16 0.18 0.18 0.19 0.22 0.24 0.25 0.26 0.28 0.29
0.83 0.73 0.59 0.73 0.90 0.94 0.90 0.86 0.70 0.53 0.39 0.27 0.23 0.21 0.28 0.28 0.33 0.30 0.31 0.29 0.28 0.25 0.22 0.25 0.24 0.27 0.30 0.29 0.31 0.35 0.36 0.30 0.34 0.32 0.29 0.33 0.26 0.33 0.29 0.28 0.26 0.30 0.30 0.27 0.21 0.24 0.23 0.15 0.20 0.30 0.29 0.31 0.31 0.28 0.19 0.22 0.28 0.29 0.27 0.23 0.27 0.19 0.16 0.13 0.12 0.14 0.11 0.09 0.09 0.08 0.10 0.08 0.10 0.10 0.11 0.11 0.12 0.13 0.15 0.16 0.17 0.20 0.22 0.23 0.25 0.26 0.27 0.27
0.72 0.63 0.56 0.79 0.90 0.95 0.92 0.80 0.61 0.49 0.36 0.25 0.24 0.25 0.34 0.27 0.32 0.35 0.34 0.30 0.26 0.24 0.22 0.23 0.27 0.24 0.27 0.28 0.31 0.30 0.35 0.33 0.35 0.34 0.33 0.35 0.32 0.38 0.32 0.34 0.28 0.28 0.30 0.29 0.24 0.27 0.21 0.22 0.15 0.26 0.33 0.31 0.22 0.24 0.19 0.20 0.18 0.20 0.20 0.19 0.21 0.19 0.22 0.18 0.17 0.13 0.11 0.09 0.09 0.08 0.07 0.08 0.10 0.12 0.11 0.11 0.12 0.13 0.14 0.15 0.17 0.19 0.22 0.24 0.25 0.26 0.27 0.28
0.76 0.62 0.61 0.83 0.88 0.94 0.85 0.67 0.49 0.40 0.34 0.34 0.32 0.30 0.32 0.28 0.33 0.34 0.36 0.37 0.32 0.36 0.25 0.24 0.24 0.23 0.25 0.26 0.28 0.32 0.30 0.33 0.34 0.34 0.36 0.37 0.36 0.30 0.36 0.34 0.34 0.29 0.31 0.29 0.26 0.26 0.21 0.20 0.16 0.23 0.25 0.22 0.23 0.29 0.28 0.26 0.24 0.20 0.17 0.15 0.16 0.15 0.14 0.12 0.11 0.16 0.13 0.10 0.09 0.08 0.07 0.09 0.11 0.14 0.13 0.14 0.14 0.14 0.16 0.16 0.18 0.20 0.22 0.24 0.26 0.27 0.28 0.28
0.64 0.51 0.60 0.89 0.92 0.89 0.68 0.45 0.44 0.46 0.38 0.32 0.29 0.33 0.31 0.41 0.33 0.34 0.34 0.37 0.34 0.29 0.35 0.28 0.27 0.25 0.25 0.25 0.26 0.28 0.29 0.28 0.31 0.31 0.34 0.33 0.39 0.37 0.38 0.42 0.38 0.35 0.30 0.26 0.24 0.27 0.25 0.23 0.20 0.19 0.20 0.21 0.26 0.32 0.34 0.33 0.30 0.26 0.23 0.19 0.20 0.18 0.17 0.13 0.10 0.11 0.14 0.13 0.13 0.12 0.09 0.09 0.14 0.16 0.16 0.15 0.15 0.16 0.16 0.17 0.19 0.21 0.23 0.25 0.26 0.28 0.29 0.30
0.59 0.56 0.82 0.90 0.92 0.80 0.61 0.43 0.45 0.42 0.37 0.38 0.44 0.40 0.43 0.38 0.34 0.36 0.32 0.35 0.30 0.35 0.29 0.26 0.25 0.23 0.26 0.25 0.27 0.28 0.28 0.26 0.29 0.28 0.30 0.32 0.35 0.41 0.43 0.41 0.42 0.39 0.36 0.32 0.32 0.31 0.27 0.20 0.19 0.20 0.25 0.29 0.31 0.34 0.36 0.35 0.31 0.26 0.25 0.25 0.22 0.18 0.17 0.14 0.13 0.14 0.12 0.13 0.12 0.11 0.09 0.10 0.15 0.18 0.17 0.17 0.17 0.17 0.17 0.18 0.19 0.22 0.24 0.26 0.27 0.28 0.29 0.30
0.62 0.62 0.69 0.89 0.93 0.79 0.55 0.36 0.34 0.37 0.39 0.42 0.40 0.39 0.44 0.41 0.37 0.33 0.32 0.34 0.31 0.31 0.28 0.27 0.28 0.31 0.24 0.28 0.26 0.23 0.28 0.23 0.30 0.29 0.29 0.33 0.32 0.42 0.43 0.42 0.42 0.38 0.35 0.33 0.29 0.36 0.24 0.24 0.19 0.18 0.18 0.21 0.24 0.27 0.28 0.33 0.31 0.24 0.21 0.23 0.23 0.22 0.21 0.20 0.18 0.19 0.13 0.13 0.12 0.11 0.08 0.09 0.14 0.19 0.19 0.18 0.18 0.17 0.17 0.19 0.22 0.22 0.24 0.26 0.27 0.28 0.29 0.31
0.63 0.66 0.68 0.75 0.87 0.73 0.50 0.49 0.41 0.38 0.39 0.37 0.36 0.35 0.36 0.39 0.44 0.39 0.36 0.33 0.38 0.35 0.31 0.28 0.30 0.31 0.27 0.29 0.26 0.27 0.28 0.24 0.22 0.29 0.29 0.29 0.30 0.39 0.40 0.40 0.42 0.39 0.39 0.39 0.36 0.36 0.27 0.25 0.20 0.17 0.14 0.13 0.13 0.14 0.14 0.16 0.19 0.23 0.25 0.23 0.24 0.22 0.20 0.18 0.15 0.16 0.13 0.14 0.14 0.11 0.10 0.13 0.15 0.18 0.18 0.18 0.18 0.18 0.20 0.22 0.25 0.26 0.26 0.26 0.28 0.29 0.30 0.31
0.55 0.43 0.56 0.63 0.70 0.65 0.62 0.63 0.53 0.43 0.40 0.39 0.35 0.38 0.38 0.34 0.42 0.46 0.43 0.39 0.41 0.39 0.36 0.35 0.35 0.35 0.29 0.26 0.25 0.24 0.24 0.29 0.24 0.23 0.25 0.25 0.28 0.33 0.36 0.37 0.37 0.39 0.41 0.41 0.40 0.38 0.28 0.27 0.23 0.20 0.16 0.14 0.14 0.15 0.20 0.22 0.21 0.18 0.20 0.21 0.21 0.23 0.23 0.22 0.20 0.17 0.13 0.14 0.14 0.14 0.13 0.14 0.14 0.16 0.17 0.18 0.19 0.18 0.20 0.22 0.23 0.24 0.26 0.28 0.30 0.30 0.31 0.32
0.58 0.48 0.49 0.45 0.59 0.59 0.53 0.57 0.51 0.49 0.40 0.43 0.34 0.39 0.35 0.36 0.40 0.42 0.50 0.37 0.42 0.39 0.38 0.37 0.35 0.28 0.29 0.27 0.25 0.24 0.26 0.25 0.28 0.25 0.25 0.25 0.29 0.32 0.36 0.35 0.35 0.36 0.38 0.37 0.39 0.36 0.31 0.26 0.25 0.23 0.20 0.19 0.19 0.20 0.21 0.21 0.18 0.19 0.19 0.20 0.22 0.22 0.22 0.21 0.18 0.15 0.17 0.16 0.13 0.15 0.16 0.14 0.14 0.17 0.18 0.19 0.20 0.21 0.22 0.24 0.25 0.26 0.28 0.30 0.31 0.31 0.32 0.33
0.45 0.52 0.57 0.59 0.49 0.43 0.45 0.47 0.52 0.48 0.49 0.46 0.39 0.43 0.37 0.37 0.38 0.35 0.44 0.48 0.47 0.46 0.35 0.37 0.37 0.34 0.30 0.26 0.26 0.24 0.26 0.25 0.26 0.23 0.27 0.29 0.29 0.33 0.31 0.35 0.32 0.35 0.35 0.34 0.38 0.34 0.30 0.26 0.26 0.25 0.22 0.22 0.22 0.22 0.23 0.22 0.21 0.21 0.21 0.21 0.21 0.23 0.23 0.20 0.19 0.19 0.19 0.16 0.13 0.15 0.18 0.16 0.16 0.18 0.19 0.20 0.21 0.21 0.23 0.25 0.27 0.29 0.30 0.33 0.32 0.31 0.32 0.33
0.52 0.54 0.56 0.62 0.49 0.51 0.51 0.51 0.53 0.50 0.48 0.47 0.44 0.43 0.39 0.38 0.36 0.40 0.41 0.42 0.45 0.43 0.43 0.32 0.34 0.36 0.35 0.34 0.29 0.25 0.26 0.23 0.23 0.28 0.27 0.27 0.28 0.29 0.28 0.31 0.35 0.37 0.34 0.32 0.33 0.35 0.31 0.28 0.28 0.26 0.23 0.23 0.23 0.23 0.24 0.22 0.22 0.23 0.22 0.23 0.23 0.23 0.22 0.22 0.20 0.21 0.20 0.18 0.18 0.20 0.19 0.17 0.18 0.20 0.21 0.22 0.25 0.26 0.28 0.32 0.31 0.30 0.31 0.32 0.32 0.32 0.33 0.35
0.40 0.44 0.46 0.57 0.56 0.54 0.54 0.55 0.53 0.51 0.47 0.50 0.41 0.42 0.42 0.40 0.37 0.42 0.46 0.42 0.37 0.42 0.49 0.40 0.41 0.43 0.43 0.40 0.36 0.29 0.29 0.28 0.27 0.25 0.31 0.29 0.30 0.30 0.28 0.29 0.29 0.35 0.35 0.31 0.31 0.36 0.28 0.26 0.31 0.29 0.25 0.23 0.24 0.25 0.25 0.24 0.23 0.21 0.23 0.24 0.24 0.24 0.23 0.22 0.21 0.21 0.23 0.21 0.22 0.22 0.20 0.19 0.23 0.25 0.24 0.26 0.29 0.30 0.31 0.31 0.30 0.31 0.32 0.32 0.32 0.33 0.35 0.36
0.48 0.51 0.52 0.48 0.46 0.51 0.54 0.53 0.51 0.49 0.45 0.49 0.45 0.46 0.46 0.44 0.42 0.44 0.43 0.51 0.44 0.42 0.47 0.42 0.48 0.48 0.49 0.47 0.45 0.42 0.44 0.40 0.37 0.35 0.36 0.33 0.27 0.33 0.29 0.30 0.34 0.29 0.32 0.31 0.31 0.33 0.29 0.25 0.31 0.28 0.24 0.23 0.25 0.24 0.24 0.26 0.25 0.23 0.23 0.24 0.23 0.23 0.20 0.21 0.20 0.22 0.22 0.20 0.21 0.22 0.20 0.18 0.22 0.27 0.26 0.25 0.27 0.27 0.26 0.28 0.30 0.31 0.33 0.34 0.33 0.35 0.36 0.38
0.50 0.53 0.52 0.48 0.41 0.50 0.48 0.52 0.52 0.49 0.42 0.48 0.48 0.48 0.47 0.46 0.50 0.52 0.47 0.55 0.54 0.55 0.52 0.51 0.50 0.48 0.48 0.47 0.45 0.49 0.53 0.52 0.51 0.52 0.49 0.47 0.46 0.43 0.42 0.41 0.38 0.32 0.31 0.30 0.34 0.30 0.29 0.26 0.25 0.24 0.22 0.21 0.26 0.26 0.25 0.25 0.24 0.21 0.21 0.21 0.22 0.22 0.22 0.23 0.25 0.26 0.24 0.22 0.20 0.19 0.18 0.19 0.24 0.25 0.23 0.24 0.25 0.25 0.27 0.28 0.30 0.32 0.34 0.35 0.36 0.37 0.38 0.40
Wind_Speed
38 38 38 37 37 36 35 35 35 35 35 35 36 36 35 34 34 33 33 33 32 31 30 31 31 30 29 30 33 33 31 29 29 29 29 28 29 30 29 30 31 30 30 30 29 29 27 27 27 27 26 24 22 21 19 17 16 14 13 12 12 13 12 12 12 11 10 9 9 9 10 10 8 7 7 6 5 5 5 5 5 5 5 6 5 5 7 10
38 38 37 37 36 35 35 35 35 35 34 34 35 36 35 34 34 33 33 33 32 31 30 31 31 31 30 31 33 32 30 28 28 29 31 30 29 30 30 31 31 31 31 31 30 29 28 28 28 27 26 24 22 21 20 18 16 15 14 13 13 14 13 12 12 12 9 9 11 10 9 9 8 8 8 7 5 5 6 5 5 4 5 6 5 6 8 10
38 38 37 36 36 35 35 35 35 35 34 34 34 35 35 34 34 33 32 32 31 30 29 30 31 31 31 32 32 32 30 28 27 29 30 31 30 30 31 31 32 32 31 31 31 30 29 29 29 28 26 24 22 21 20 18 17 15 14 13 13 14 12 11 12 12 10 9 11 11 9 9 8 8 8 7 6 5 6 6 6 5 6 6 5 6 9 10
38 38 37 36 35 35 35 35 35 34 33 33 33 34 34 33 33 32 32 31 30 30 29 29 30 31 31 31 32 32 29 26 27 29 29 31 32 31 31 32 32 32 31 31 31 30 30 29 29 28 26 23 22 21 20 18 17 16 15 14 14 14 12 11 12 11 10 10 11 11 10 8 8 8 8 8 7 5 6 7 7 7 7 7 7 7 8 9
38 38 37 36 35 35 34 35 34 33 33 32 33 33 33 33 33 32 31 31 30 29 28 28 29 30 31 31 32 31 28 25 26 29 29 30 32 31 32 32 32 32 31 31 31 30 30 29 29 27 25 23 22 21 20 18 18 16 15 14 14 13 12 12 11 11 10 10 10 11 10 9 8 8 8 9 7 6 6 7 7 7 7 7 8 8 9 9
38 37 36 35 35 35 34 34 34 33 33 33 33 33 33 33 32 31 30 30 30 29 28 28 28 30 30 31 32 31 29 25 25 28 29 30 31 32 33 32 32 32 32 31 31 31 30 30 29 27 24 23 22 22 20 19 18 16 15 14 14 13 12 11 11 11 11 11 11 11 10 9 9 7 7 9 9 8 6 5 6 6 7 7 8 9 9 9
38 37 36 35 35 35 34 34 34 33 33 33 33 33 32 32 32 31 30 30 29 29 28 28 28 29 30 30 30 30 29 27 24 27 30 30 31 32 33 33 32 32 32 31 31 30 30 30 29 27 24 23 23 22 21 20 17 16 16 15 14 13 12 11 11 12 11 11 11 11 9 8 9 8 6 8 10 8 7 5 5 5 6 8 8 9 9 10
38 37 36 35 35 35 34 34 34 33 33 33 33 33 32 32 32 30 30 30 29 29 28 28 28 29 30 30 30 28 29 29 25 27 30 30 31 33 33 33 32 32 32 32 31 30 30 30 29 27 24 23 23 22 21 19 17 16 16 16 15 13 12 11 12 11 11 11 11 10 9 8 9 8 7 8 9 7 7 7 6 6 6 7 8 9 9 9
38 37 36 35 35 35 34 34 33 33 33 33 33 32 32 32 31 30 30 30 29 29 28 28 28 29 30 30 29 28 29 29 26 27 30 30 32 33 33 32 32 32 32 31 30 30 30 29 29 27 24 23 23 22 22 20 18 18 17 16 15 13 12 12 12 11 11 11 11 10 8 8 8 8 7 9 8 7 7 7 7 7 7 7 8 9 9 9
38 36 35 35 35 35 34 34 33 33 33 33 33 32 32 31 31 30 30 29 28 28 28 28 28 29 30 29 29 27 28 28 27 28 30 31 32 33 32 32 32 32 32 31 30 30 29 29 28 27 25 24 23 22 22 21 19 19 18 16 15 14 13 13 13 11 11 11 10 11 9 8 8 8 8 8 7 6 7 7 7 8 8 8 8 9 9 9
38 36 35 35 35 34 34 33 33 33 33 33 33 32 32 31 31 30 30 29 28 28 28 28 28 29 29 29 29 27 27 27 27 28 30 31 32 33 32 32 32 32 31 30 30 30 29 29 28 26 24 24 24 21 21 20 19 20 19 16 14 14 13 12 12 12 12 11 11 11 10 9 9 8 9 9 7 6 7 8 8 8 9 9 8 9 9 10
38 36 35 34 34 34 34 33 33 33 32 33 33 32 32 31 30 30 30 29 28 28 28 28 28 29 28 28 28 27 27 27 27 29 31 31 32 33 32 32 32 32 31 30 30 29 28 29 28 25 25 25 24 22 21 21 20 19 18 17 15 14 13 12 12 12 12 12 11 11 10 10 10 11 10 10 9 7 7 8 9 9 9 9 9 9 10 10
38 36 35 34 34 34 33 33 32 32 32 33 33 32 32 31 30 30 29 29 28 28 28 28 28 29 28 27 28 28 27 27 28 29 31 32 32 32 32 32 32 31 31 30 30 29 28 30 27 25 26 25 23 23 22 20 20 19 18 17 16 14 14 13 12 13 13 12 12 12 11 12 12 12 11 10 9 8 8 9 10 10 10 10 10 10 10 11
37 36 35 34 34 34 33 32 32 32 32 33 33 32 32 31 31 30 29 29 29 28 28 28 28 28 28 27 27 28 28 28 28 30 31 32 32 32 31 31 31 30 30 30 29 29 28 29 27 25 25 24 24 23 21 19 19 19 18 17 17 17 17 14 13 13 13 13 12 12 12 13 13 12 11 10 10 10 10 10 10 11 11 11 11 11 11 11
37 36 36 35 34 33 33 32 33 32 32 33 33 32 32 31 31 30 29 29 29 28 28 28 28 28 28 26 27 29 29 28 29 30 32 33 33 32 32 31 31 30 30 29 29 29 28 28 26 25 24 24 24 22 20 19 19 19 19 18 17 18 17 15 13 13 13 13 11 11 12 13 13 13 12 10 10 10 11 11 11 11 12 12 12 12 12 12
38 36 36 35 34 33 33 32 32 32 32 33 32 32 32 32 31 30 29 28 28 28 27 27 28 28 27 26 27 29 30 29 29 31 32 33 33 32 32 31 31 30 30 29 29 28 27 26 25 25 25 24 23 22 20 19 19 19 19 19 18 18 17 15 14 13 13 13 12 12 13 12 11 12 12 11 10 9 11 11 11 12 12 13 13 13 14 14
38 37 36 35 34 33 32 32 32 32 32 33 33 32 31 31 31 30 28 28 28 27 27 27 28 27 26 26 28 29 30 30 30 31 32 32 32 33 32 31 30 30 30 29 28 28 26 26 26 25 24 23 23 23 22 21 22 21 19 18 18 18 17 16 15 14 12 13 14 12 13 14 13 12 13 13 12 11 12 13 13 12 12 13 13 14 14 15
38 37 36 36 34 33 32 32 32 32 33 33 32 32 32 31 31 30 28 28 28 27 26 27 28 27 27 28 29 29 30 31 30 31 32 32 32 33 32 31 31 31 30 28 27 27 26 25 26 26 24 23 24 24 24 23 22 21 20 19 18 17 18 17 16 15 13 13 15 14 14 16 15 14 15 15 13 14 14 14 14 14 14 14 13 14 14 15
38 38 37 36 34 33 32 32 32 33 33 33 33 32 32 31 30 29 29 29 29 27 26 28 29 27 27 29 29 28 30 31 30 31 32 32 32 32 31 31 31 30 29 28 27 27 27 26 26 26 26 26 26 25 24 23 21 21 20 19 19 18 18 18 17 16 14 14 16 16 16 16 16 15 16 16 14 14 15 15 15 15 15 15 14 14 14 15
38 38 37 36 34 33 33 33 33 33 34 34 34 33 32 32 31 29 30 29 29 27 26 28 29 26 25 28 30 29 30 30 30 31 32 32 33 32 30 30 30 29 29 28 28 27 27 27 27 28 27 27 25 23 22 22 20 20 19 18 19 19 18 18 17 16 15 15 16 16 16 16 17 17 18 17 15 15 17 17 17 16 16 16 15 15 15 15
39 38 37 36 35 33 33 34 33 34 34 34 35 33 31 33 31 31 31 29 28 27 25 28 29 26 25 27 30 31 30 29 29 31 32 32 33 32 30 30 30 28 28 28 27 27 26 27 28 27 26 25 24 23 21 20 19 18 19 18 18 18 18 18 17 16 15 16 16 15 15 17 18 18 18 18 16 16 18 17 18 18 17 17 16 17 16 16
39 38 37 36 35 34 34 34 34 34 34 34 35 32 31 33 30 30 31 27 27 27 26 29 28 26 26 27 29 30 29 28 29 31 31 32 32 31 30 29 29 29 28 28 27 26 27 27 27 26 25 23 22 22 21 20 19 19 19 19 18 19 18 18 17 16 15 16 17 15 15 18 18 18 19 19 18 18 18 18 18 18 18 18 18 18 17 17
40 39 38 37 36 34 34 35 34 34 34 34 34 32 32 33 30 30 30 26 27 27 27 29 28 27 27 26 28 29 29 28 29 31 31 32 31 31 30 29 28 29 28 28 28 28 28 27 26 26 26 24 22 22 21 20 20 20 20 19 19 19 18 18 18 16 15 16 16 16 16 18 18 17 18 18 17 18 18 18 18 19 19 20 19 19 18 19
41 40 38 37 36 35 34 35 35 34 34 34 34 32 32 32 30 30 29 26 26 27 28 29 28 28 28 27 28 28 28 28 29 30 30 31 31 30 29 28 28 28 28 28 28 27 26 24 25 26 25 24 23 23 23 22 21 21 21 20 20 19 19 18 17 16 16 16 15 15 16 17 16 16 17 16 15 16 16 16 17 18 18 19 18 18 18 18
41 39 38 37 36 35 35 35 34 34 34 33 33 32 32 32 31 30 28 26 27 27 28 29 28 28 29 27 27 28 28 27 28 29 29 30 30 29 28 27 27 28 28 27 26 26 25 24 25 26 24 24 24 24 24 23 21 21 22 21 20 20 19 18 17 15 15 16 15 15 15 16 15 16 17 16 15 16 16 16 17 17 16 17 17 18 18 18
41 39 39 38 37 37 36 34 34 34 33 33 33 32 32 32 31 30 28 25 27 28 28 29 28 29 30 28 27 28 27 27 28 29 29 29 29 29 28 27 26 27 28 27 26 26 26 24 25 26 25 25 25 25 25 23 22 22 22 21 20 19 18 18 17 16 16 16 15 14 15 16 15 15 16 15 15 17 16 15 16 15 15 15 16 17 17 18
41 40 39 38 38 38 35 33 35 35 33 33 33 32 33 33 31 29 27 24 26 29 29 29 29 29 30 29 28 28 28 28 29 29 29 29 28 28 28 28 27 27 28 27 26 26 26 25 24 24 25 25 25 25 25 23 22 22 21 20 20 19 19 19 17 16 17 17 16 15 15 16 17 17 17 15 15 16 16 15 15 14 14 14 15 16 16 16
42 41 40 39 39 38 34 33 36 36 33 32 32 33 33 33 31 28 26 24 26 29 30 29 29 29 30 30 28 28 28 28 29 29 29 29 28 27 27 28 28 27 26 27 27 26 25 27 27 25 24 25 26 25 25 23 22 22 22 20 20 19 19 18 17 17 17 17 18 17 16 17 18 18 16 15 16 17 16 17 16 14 14 14 14 14 14 15
42 41 41 40 40 38 34 33 36 36 33 32 32 32 33 32 30 26 24 25 26 28 30 30 30 30 30 29 28 27 27 27 28 29 29 29 28 27 27 28 27 26 25 25 27 25 24 26 27 25 24 25 25 23 23 23 22 23 22 19 18 18 17 17 17 17 17 17 19 19 17 17 18 18 16 15 16 18 18 18 17 16 15 14 14 14 14 14
42 42 41 41 40 37 34 33 36 36 34 33 32 33 33 31 29 26 24 26 27 28 29 31 31 31 31 30 28 27 27 27 27 29 29 28 28 27 27 27 26 25 24 23 25 25 24 24 25 25 24 25 24 22 22 23 23 23 21 19 18 17 17 17 17 17 16 18 20 20 18 17 17 17 16 16 16 17 17 17 17 16 15 14 14 14 14 14
43 42 42 42 40 37 34 34 37 37 35 34 33 33 32 29 28 27 26 27 27 27 30 31 31 31 32 32 30 29 28 27 28 29 29 29 28 28 28 28 27 25 25 25 25 25 24 23 24 25 25 24 23 22 21 22 23 22 21 20 19 18 17 17 17 17 17 19 20 19 19 18 18 17 15 15 16 16 16 16 17 17 15 14 14 14 14 14
43 43 42 41 40 37 34 35 37 36 35 35 34 33 32 28 29 30 28 28 27 29 31 32 32 33 33 31 30 30 30 28 28 29 29 29 29 30 29 29 29 27 27 28 27 25 24 24 24 24 25 25 23 22 22 22 23 22 22 21 19 17 17 18 18 18 19 20 19 18 18 18 20 20 17 17 17 17 18 18 18 17 15 14 14 14 13 13
43 43 42 41 39 36 34 35 38 37 36 36 34 32 30 28 31 32 30 29 28 28 31 31 32 33 33 32 31 31 29 28 29 28 28 29 29 30 29 29 29 27 27 28 27 25 24 24 25 24 25 26 25 24 25 24 24 24 23 22 21 18 17 19 20 19 20 20 19 19 18 18 20 20 20 20 19 18 18 18 18 17 16 15 15 14 13 13
43 43 42 40 38 36 35 36 38 37 36 36 34 31 30 30 31 32 32 31 28 27 29 30 31 33 33 32 32 32 30 29 29 28 28 29 30 31 30 29 29 27 27 27 27 27 25 25 26 26 25 25 25 25 25 24 23 23 23 22 22 21 19 20 20 19 19 19 19 19 18 18 18 17 17 19 19 19 18 19 19 17 16 16 16 15 14 13
42 42 41 39 38 36 36 37 38 37 37 36 34 33 34 33 31 32 33 32 29 27 28 30 31 33 33 32 32 33 31 30 30 29 29 30 31 32 31 30 30 29 28 28 27 27 26 25 25 26 25 25 25 26 24 23 23 24 23 22 23 23 20 19 19 19 18 17 18 19 19 19 18 17 16 16 17 18 18 18 18 18 17 16 15 15 14 13
41 41 40 38 37 36 37 38 37 38 38 36 35 36 36 32 30 32 33 32 30 30 29 30 31 33 34 33 33 34 32 31 31 30 30 30 30 31 31 30 30 30 29 28 27 26 26 25 24 24 25 24 25 26 24 24 24 24 24 24 25 23 20 19 19 18 17 18 19 19 20 20 18 18 17 14 15 17 17 17 17 17 17 16 16 16 15 14
39 39 38 37 37 36 37 38 37 38 37 36 37 37 35 31 30 31 31 31 31 30 30 31 31 33 34 34 35 36 34 32 31 31 31 30 30 31 31 30 30 31 30 28 27 27 26 24 23 24 25 25 25 25 24 24 24 24 25 26 24 22 20 20 19 18 17 20 21 20 21 21 18 18 17 15 15 17 18 18 18 18 17 17 17 17 16 14
37 37 36 36 36 36 37 37 37 37 36 36 37 35 33 31 30 29 30 31 31 30 30 32 31 32 35 35 36 37 36 34 33 33 32 31 31 32 32 31 30 31 31 29 27 27 26 24 23 24 25 26 25 25 25 24 24 25 26 25 22 21 22 21 20 19 19 20 21 20 21 21 21 20 18 17 18 19 19 18 18 19 19 19 18 17 16 15
35 35 34 35 36 36 37 37 37 36 35 36 38 35 33 32 30 29 30 31 30 29 30 31 30 31 33 34 35 36 36 35 35 35 34 33 32 32 32 31 30 31 31 30 29 28 26 25 24 25 26 26 25 26 28 27 26 25 24 24 23 22 22 22 21 20 20 20 20 20 20 21 22 21 20 20 20 20 19 18 18 20 21 20 19 18 17 16
34 33 32 34 36 36 36 36 35 35 35 36 36 34 33 32 31 30 30 30 30 29 30 31 30 30 31 32 33 34 34 34 35 35 34 34 34 33 33 32 31 31 30 29 29 29 27 26 26 25 25 26 27 28 30 29 27 26 25 25 24 23 21 21 21 21 20 20 20 20 21 21 20 19 19 20 20 20 19 19 19 20 21 20 19 18 17 16
34 32 32 34 36 36 37 36 35 35 34 34 34 34 33 32 31 30 29 29 30 30 30 30 29 30 31 31 32 32 32 33 34 34 34 35 35 34 34 33 32 31 30 29 30 30 28 27 27 26 27 28 28 28 28 28 28 27 27 27 26 24 22 21 22 23 22 21 21 21 21 23 21 18 19 20 20 20 20 19 19 20 20 19 19 19 18 17
35 33 33 34 36 37 37 35 34 34 34 34 34 33 32 31 30 30 29 28 29 29 29 28 28 29 29 30 30 31 31 31 33 33 33 34 35 35 35 34 33 33 31 30 30 30 29 27 26 27 28 28 28 27 27 28 27 27 27 27 26 26 25 24 23 24 22 22 22 20 21 23 22 20 20 20 20 20 20 19 20 20 20 20 19 20 20 19
35 34 33 34 36 37 36 35 35 34 34 34 33 32 32 31 30 30 29 29 29 29 29 28 29 28 29 29 30 31 32 31 32 33 32 31 32 33 34 34 33 32 32 31 31 31 29 28 27 26 26 27 27 27 26 27 27 27 28 28 27 27 27 26 26 24 22 23 22 20 21 24 23 21 21 21 21 21 20 21 21 21 21 21 21 21 21 21
34 34 33 34 36 37 36 36 36 36 35 34 32 31 31 31 30 30 30 29 29 29 29 29 29 28 29 28 28 30 32 30 31 32 31 31 31 31 33 35 34 33 32 33 33 32 31 30 29 26 24 25 26 26 27 28 29 30 30 29 29 28 26 26 26 23 23 25 24 22 23 25 23 22 22 22 21 21 21 21 22 22 22 22 22 22 22 21
31 33 33 34 35 36 35 35 36 36 35 34 33 32 31 30 29 29 29 29 29 29 29 29 29 28 28 27 26 28 30 29 30 31 30 31 31 29 31 34 34 33 32 32 32 33 32 31 31 29 28 28 29 29 30 30 30 30 30 30 30 29 28 28 26 24 26 26 25 25 26 25 24 23 22 22 21 20 21 22 23 23 23 23 23 22 22 21
30 32 33 33 34 35 35 34 35 35 35 35 33 32 32 30 29 29 28 28 28 28 27 28 28 27 27 28 27 28 29 28 28 29 30 30 31 29 30 31 32 30 30 31 32 32 31 32 34 34 34 34 33 32 31 29 29 30 30 31 31 30 30 28 26 27 28 26 27 30 28 26 26 25 24 24 23 22 23 24 25 25 24 24 23 22 22 22
28 29 31 33 33 35 35 35 36 35 35 35 34 33 33 31 29 29 28 28 29 28 26 27 28 28 29 29 28 28 29 28 28 29 29 29 30 29 29 29 30 29 28 30 32 31 30 33 35 35 36 35 33 32 31 29 30 31 31 31 32 31 31 30 31 32 29 26 30 32 29 29 30 28 27 27 26 25 26 26 26 25 24 24 23 23 23 24
28 28 29 31 32 34 35 37 37 35 35 35 34 33 33 32 31 30 29 28 28 28 27 27 27 28 29 29 29 28 29 28 29 29 28 28 29 29 28 28 29 30 28 29 31 30 31 33 34 34 36 34 32 32 32 30 30 30 31 32 32 32 33 34 36 34 31 32 34 32 30 32 32 30 30 30 29 28 28 27 26 25 24 25 25 25 26 26
28 28 28 28 29 31 33 35 36 36 35 35 34 34 35 35 34 32 29 28 28 28 28 28 28 28 28 28 27 28 29 30 30 30 30 29 28 28 28 28 29 30 29 29 30 31 31 33 33 33 35 35 33 33 33 32 30 30 32 32 31 32 34 36 37 36 34 36 35 31 32 35 32 30 31 30 29 27 26 26 27 26 26 27 27 28 28 28
28 28 28 28 28 28 30 33 35 35 35 35 35 35 35 36 36 33 31 30 30 29 29 28 28 28 27 27 26 27 29 29 29 30 30 30 29 29 29 29 29 29 29 30 30 31 32 32 31 32 34 35 34 33 33 32 32 32 33 32 32 33 34 36 37 36 35 37 34 31 35 36 33 32 31 29 28 27 27 29 30 30 30 30 30 31 30 30
28 28 28 28 28 27 27 29 32 33 34 35 35 35 35 37 37 35 33 32 32 31 30 30 28 27 27 27 27 27 27 27 27 28 28 29 30 29 29 29 29 29 29 30 30 30 31 31 30 30 33 35 34 33 33 32 31 33 34 35 36 36 36 37 36 34 34 36 34 33 36 36 32 31 32 30 29 30 32 33 33 33 33 32 32 33 32 32
28 28 28 29 28 28 27 28 30 31 32 33 33 32 33 35 36 35 34 33 33 33 32 32 30 29 28 29 29 28 27 26 25 25 25 25 26 27 27 28 28 29 30 30 30 30 31 31 30 30 32 33 33 33 32 31 31 34 38 39 39 39 38 37 35 35 36 35 34 36 37 35 31 31 32 31 31 33 34 35 35 35 35 34 34 34 34 35
Wind_Direction
200 201 201 201 202 201 201 201 200 200 201 200 199 199 200 201 201 202 203 204 204 203 203 204 205 205 205 204 203 202 201 202 205 205 204 204 204 203 200 196 192 190 188 186 185 184 183 183 183 181 181 182 183 181 179 180 178 176 177 175 177 177 177 175 173 175 167 166 170 171 171 162 161 165 160 153 147 147 152 155 152 153 156 150 140 139 154 157
199 199 199 200 201 200 200 200 200 200 200 200 199 200 201 202 203 203 203 204 206 205 204 203 203 203 204 202 200 199 201 204 207 207 206 205 202 201 198 193 190 188 187 185 185 183 183 185 183 181 182 183 183 182 181 182 179 178 179 177 180 180 180 178 175 175 168 163 164 165 167 165 165 165 163 161 159 150 151 160 156 157 165 158 146 143 155 159
198 197 197 199 199 199 199 199 199 199 198 198 199 199 200 202 203 203 203 204 206 206 205 203 201 201 201 201 199 198 200 205 207 207 207 204 201 198 195 191 189 188 186 186 185 184 184 185 183 182 183 184 185 184 182 183 183 183 179 178 185 183 181 181 178 177 175 168 161 161 163 164 167 165 166 167 160 155 161 166 161 169 175 165 158 151 157 163
196 196 196 197 197 197 198 198 198 198 197 197 197 198 199 201 202 202 203 204 205 206 205 202 200 198 199 199 198 198 200 205 207 205 204 202 199 196 192 189 187 187 187 185 186 185 185 184 183 183 183 184 187 185 184 185 186 185 181 182 186 182 180 181 182 182 179 172 164 161 160 165 170 166 168 165 157 168 182 182 177 180 176 166 166 163 162 166
194 194 195 196 196 196 197 197 197 197 196 196 196 197 198 200 201 202 202 203 204 205 205 202 200 198 198 198 197 197 198 201 204 201 200 198 197 194 190 188 187 186 186 185 186 185 185 184 184 185 184 185 187 186 187 188 186 185 186 185 183 181 181 181 183 184 180 172 167 163 163 170 169 167 171 168 168 180 187 189 189 189 178 168 170 171 170 171
193 194 194 195 195 196 197 196 196 196 195 195 196 197 198 199 200 201 201 202 203 203 202 200 200 198 197 196 196 196 196 198 200 197 196 195 194 192 188 187 186 185 185 185 186 185 185 185 186 186 185 186 188 188 189 190 188 187 190 188 183 184 182 183 185 185 182 174 172 171 173 172 166 172 175 179 190 188 182 185 191 196 186 177 173 176 178 179
192 193 194 194 194 195 196 196 196 195 194 195 196 196 197 199 199 200 200 200 201 200 199 199 200 199 196 195 194 196 197 200 198 194 193 192 192 190 187 186 185 185 185 185 185 185 186 186 186 186 184 187 190 189 189 190 189 187 190 190 187 186 184 187 186 183 183 181 182 180 177 174 175 180 174 192 207 196 191 193 191 195 188 183 181 184 188 188
191 192 193 193 193 193 195 196 196 195 195 195 196 196 197 198 198 198 198 199 199 199 198 197 198 198 195 193 193 195 198 200 197 193 191 189 190 189 186 186 185 185 185 185 186 186 187 186 187 187 186 190 190 189 189 189 192 190 190 191 188 189 188 187 184 181 184 186 188 182 180 188 189 186 183 206 215 206 208 208 199 193 186 189 190 192 195 195
191 192 192 193 193 192 194 195 195 195 195 195 195 195 196 196 197 197 197 198 198 198 198 196 196 196 194 193 192 193 197 197 194 192 190 188 189 188 187 187 186 185 185 186 187 187 188 188 189 189 189 191 188 189 191 192 197 195 190 190 189 192 193 190 186 185 187 190 192 187 188 198 196 194 203 216 220 217 214 211 209 202 196 199 198 199 200 201
191 191 191 192 192 193 193 194 194 194 194 194 194 194 195 196 196 196 196 197 197 197 197 195 194 194 193 193 191 192 194 194 193 192 189 188 188 188 188 187 186 185 186 187 188 188 190 190 191 190 188 190 189 191 194 196 198 193 188 188 189 193 197 196 192 192 192 194 199 196 197 204 202 202 208 215 219 219 212 212 217 211 208 209 208 208 207 208
190 191 191 191 192 193 193 193 194 194 194 194 194 194 194 195 195 194 195 195 195 196 195 194 193 192 193 192 190 192 192 191 192 191 188 187 188 188 188 188 187 186 187 188 190 190 191 190 189 189 191 192 190 193 197 197 195 191 188 190 198 198 197 199 196 199 201 200 205 200 202 211 207 205 211 215 220 219 209 213 220 217 217 216 215 216 215 217
189 190 190 191 191 192 192 193 193 193 194 194 193 193 194 194 194 193 194 193 194 195 194 193 191 191 191 191 192 192 190 190 191 189 188 187 188 189 188 188 187 187 188 189 191 192 191 189 187 190 194 191 191 195 197 196 194 194 194 197 209 207 202 207 206 209 208 206 211 206 212 221 214 215 219 221 225 223 213 217 223 222 224 224 223 223 223 224
189 190 190 191 191 191 192 192 192 193 194 193 193 193 194 194 193 192 193 192 193 193 193 192 190 189 189 191 194 192 190 190 189 188 188 188 188 188 188 187 187 188 189 189 190 191 190 190 189 190 192 190 194 197 194 196 196 198 201 201 206 209 210 213 211 214 210 211 217 212 219 226 224 226 226 225 228 226 223 226 228 227 228 229 229 229 228 229
189 189 190 190 190 191 191 191 191 192 193 193 192 193 193 193 191 191 192 192 191 191 191 190 189 189 189 191 193 192 191 190 189 188 188 188 187 187 187 187 187 189 190 189 190 190 190 190 189 190 192 193 194 194 195 200 201 201 203 205 206 206 213 217 214 214 210 215 220 212 221 228 230 233 227 229 230 226 231 232 231 232 231 231 232 233 234 234
188 188 189 189 189 190 191 191 191 192 193 192 192 192 193 191 190 191 191 191 190 189 190 189 189 188 189 192 192 191 191 190 190 189 188 188 187 187 187 187 187 189 188 188 189 189 189 189 189 191 194 194 191 193 199 203 204 204 202 207 209 206 213 221 216 214 212 218 222 214 223 231 233 234 230 231 229 225 233 237 236 236 235 234 234 235 237 239
188 188 188 189 189 189 190 190 191 192 192 191 191 191 191 190 189 190 191 190 188 188 189 189 190 188 189 192 191 190 191 191 190 189 188 188 188 187 186 186 186 188 187 188 189 189 189 190 191 193 194 195 194 196 199 202 206 208 203 205 209 207 213 220 217 219 219 221 226 222 225 229 230 232 232 233 230 229 236 240 240 239 240 239 237 238 239 241
187 188 188 188 189 189 190 190 190 191 191 190 189 190 190 188 188 189 189 187 186 188 189 190 190 189 191 192 190 191 191 191 190 188 188 188 188 187 186 186 187 187 187 188 190 190 192 193 194 196 197 199 200 197 198 202 206 207 205 205 210 210 212 218 219 224 224 222 227 228 228 231 234 238 240 239 237 239 242 243 243 242 243 242 241 241 241 242
187 188 188 188 189 189 190 190 189 190 190 188 188 188 187 186 186 187 187 186 185 186 189 191 189 190 195 193 191 191 190 189 188 187 187 188 187 187 187 188 188 188 187 190 193 193 195 196 197 198 200 201 201 199 200 205 204 204 206 206 211 214 216 220 221 225 227 225 228 232 234 238 242 246 248 245 240 241 245 245 246 246 245 245 244 243 242 243
187 188 188 188 189 189 189 189 189 189 188 186 186 185 185 184 184 187 188 186 187 189 192 193 190 191 195 193 191 190 188 187 187 187 188 188 187 187 187 188 188 189 189 193 196 197 196 197 198 198 200 202 203 202 204 206 203 203 207 208 210 214 219 223 224 227 227 225 231 233 235 241 244 247 250 248 242 243 248 248 248 248 246 246 246 245 244 243
187 188 188 188 189 189 189 189 189 189 187 186 185 184 186 185 186 189 190 189 191 194 195 193 191 192 192 191 190 188 187 187 188 189 188 188 187 187 188 189 189 191 193 195 197 199 198 198 201 202 202 202 203 202 203 204 202 201 205 210 213 215 220 224 227 231 228 226 234 236 238 244 245 246 250 251 248 247 250 250 250 248 247 247 246 247 246 245
188 188 189 189 189 190 190 189 189 188 187 186 186 188 190 189 190 192 190 190 193 195 196 193 192 194 193 190 189 187 187 188 190 190 190 190 188 188 191 192 191 194 198 197 197 199 199 200 204 205 203 201 201 201 201 203 204 205 206 209 216 218 221 225 227 232 232 230 236 240 243 246 245 246 248 250 249 247 248 248 249 249 248 247 247 248 249 249
189 189 189 190 190 191 191 190 189 188 188 188 189 192 193 191 192 193 190 191 195 195 196 194 193 195 193 190 189 189 188 189 190 191 192 191 190 192 194 193 193 195 199 198 196 199 200 203 206 204 200 199 203 204 202 204 207 209 211 211 217 221 223 228 230 234 235 233 238 243 246 247 247 247 248 249 247 248 249 248 249 251 250 250 249 251 253 253
190 190 190 191 191 191 191 190 189 189 189 191 192 193 192 191 192 191 190 193 196 196 196 194 194 194 192 191 191 190 189 190 192 193 194 192 192 194 193 193 194 196 199 199 198 199 202 207 207 202 199 198 204 207 203 206 211 213 214 214 219 223 223 226 230 234 235 234 238 242 246 248 249 250 250 249 248 250 253 251 251 250 250 251 252 253 254 254
190 190 191 191 191 192 192 190 189 190 192 193 193 193 191 190 191 190 191 195 197 198 197 196 196 194 192 192 192 191 191 192 192 193 194 193 193 195 194 195 195 196 200 200 198 200 204 209 205 201 203 202 204 208 206 208 215 218 217 216 220 223 223 227 229 232 236 238 240 244 250 251 250 252 252 251 252 253 254 254 253 251 250 252 253 253 252 252
190 191 192 191 192 192 191 191 192 192 193 194 195 194 190 190 192 191 193 197 199 200 199 197 197 196 194 193 193 193 191 192 193 193 194 193 193 195 196 197 197 199 201 199 198 201 206 209 204 202 206 205 205 210 211 210 214 220 221 219 219 218 221 226 228 230 235 240 244 246 248 249 251 252 250 252 257 257 256 256 255 254 253 252 253 253 252 253
190 191 192 192 192 191 191 194 194 192 193 195 195 193 191 191 191 193 195 199 202 202 200 198 198 196 195 195 194 191 191 194 195 194 194 194 195 195 196 199 200 200 201 199 200 204 206 208 206 204 206 207 207 212 215 213 212 219 222 219 217 216 217 221 225 229 232 236 242 243 239 245 254 252 250 253 257 257 256 257 256 255 254 253 253 253 253 253
191 192 193 193 193 191 193 196 194 192 194 196 195 193 192 191 191 195 197 201 205 202 199 200 199 197 196 196 194 192 194 195 193 194 195 195 197 196 197 200 200 201 202 201 203 206 205 206 208 206 206 208 210 213 216 213 212 219 222 217 215 216 218 221 225 229 234 237 243 246 241 246 253 251 251 254 255 257 257 257 257 256 254 253 252 252 251 250
191 193 194 194 193 193 195 196 194 194 195 195 193 193 192 191 193 195 196 202 206 200 199 202 200 197 197 195 193 193 196 195 193 196 197 196 197 197 197 201 199 200 204 202 205 208 206 206 208 207 208 212 214 217 216 211 214 222 221 217 217 218 220 225 228 232 238 240 244 249 247 246 251 252 255 258 255 255 257 255 256 257 255 254 253 251 249 247
192 194 195 194 194 194 197 197 196 195 195 194 193 192 191 191 194 196 199 205 204 201 201 201 199 199 197 195 196 196 196 196 197 198 197 196 199 198 198 199 196 197 204 203 204 208 209 209 210 208 210 213 215 218 218 214 217 219 216 217 220 223 226 228 231 233 239 241 241 246 248 246 251 256 256 256 253 251 253 253 253 254 255 254 253 251 248 246
194 195 195 194 195 196 198 199 197 196 195 194 193 192 190 192 195 197 203 206 202 202 203 201 201 200 197 196 199 199 197 199 199 197 197 199 199 199 198 198 196 197 204 204 203 208 211 210 211 211 211 212 212 215 218 216 213 212 215 218 221 228 231 232 234 234 238 243 242 244 247 246 251 256 253 250 249 247 247 249 251 253 254 253 251 248 246 245
195 195 194 195 196 197 198 199 197 196 195 194 192 190 190 194 198 200 205 205 202 203 203 202 203 200 198 197 199 201 199 200 201 198 199 200 200 200 200 200 200 201 205 206 206 211 211 209 212 213 211 209 209 213 217 217 214 214 218 218 219 229 233 235 239 237 237 243 243 243 245 243 246 251 251 249 249 246 243 243 247 251 253 252 248 246 244 243
195 194 194 195 196 197 200 200 197 195 195 193 191 191 193 196 202 205 205 203 204 205 203 203 205 202 200 200 201 202 200 201 203 201 201 202 202 202 203 204 203 202 206 207 208 211 211 212 214 214 214 212 210 212 216 220 220 219 218 216 219 229 233 236 240 239 238 242 244 243 244 244 246 250 251 250 251 248 244 242 244 248 250 249 245 242 241 239
194 193 193 195 196 198 201 198 195 194 194 192 192 194 196 200 206 207 204 203 207 207 203 203 205 202 200 201 203 204 202 203 205 204 204 204 203 206 207 207 205 205 208 208 208 210 213 218 217 214 217 217 214 213 215 220 221 219 219 218 220 226 231 236 240 242 243 243 244 244 246 248 252 253 249 247 248 246 243 242 243 245 246 245 241 238 237 235
192 192 193 194 196 199 200 197 195 195 194 193 194 196 199 205 209 206 204 207 208 206 204 203 202 201 202 203 205 205 204 206 206 205 206 205 205 207 209 210 208 207 208 209 210 210 212 219 219 217 219 219 219 219 218 218 219 221 223 221 222 224 228 233 236 238 241 243 243 244 245 245 247 250 248 245 247 246 242 242 243 243 243 241 238 236 235 235
192 193 194 194 197 200 199 196 196 195 194 194 196 199 204 209 210 206 205 207 208 206 204 203 201 201 205 207 208 208 206 207 208 207 208 208 208 210 210 211 211 210 209 209 213 213 213 220 222 222 223 220 220 223 221 219 220 223 223 222 226 228 228 232 234 234 237 242 244 243 244 244 244 249 252 251 250 245 240 240 239 239 241 238 234 235 236 237
192 193 193 195 197 199 198 197 196 195 196 197 199 203 208 211 211 209 207 207 207 204 200 202 204 203 205 207 209 211 210 209 209 210 211 212 213 213 213 214 213 213 213 212 214 216 216 221 225 224 224 222 222 223 223 223 223 223 224 225 229 229 227 230 236 240 240 242 245 243 245 251 251 251 254 252 246 242 238 235 233 234 236 232 231 234 236 238
190 192 193 195 196 197 198 198 197 196 198 200 203 206 210 212 211 210 209 207 207 204 200 203 207 206 205 207 209 210 211 211 212 212 213 214 216 215 214 217 216 215 217 216 218 219 216 220 226 223 222 224 224 222 223 226 224 223 225 227 228 230 231 231 235 243 244 244 248 246 245 250 248 249 254 247 240 242 239 235 234 234 231 227 230 234 236 239
190 192 194 196 196 197 198 198 197 197 199 203 206 209 210 212 212 212 211 208 206 207 206 206 209 209 208 209 210 210 211 212 213 214 214 216 220 217 214 217 218 217 218 218 219 221 218 220 226 224 222 225 226 222 222 227 227 226 227 227 227 229 232 233 234 239 241 244 250 250 248 248 244 245 251 244 238 240 239 236 235 233 229 227 230 234 236 239
193 194 195 197 196 197 197 198 197 197 201 205 207 210 211 211 213 213 212 209 208 209 210 210 211 211 211 211 211 211 213 214 214 216 217 218 221 220 216 218 219 218 219 219 220 222 220 220 224 225 224 225 226 224 223 225 228 229 229 228 230 231 232 232 234 236 239 242 248 252 251 248 245 244 245 241 240 240 238 237 235 232 229 228 230 233 235 239
196 197 198 197 196 197 197 197 197 199 203 207 208 210 212 211 213 214 213 211 211 212 212 213 213 212 212 214 213 213 215 216 215 218 220 220 222 223 221 220 219 219 220 221 221 223 223 222 223 225 226 224 224 226 225 224 226 227 227 227 229 232 233 235 238 238 238 240 243 247 250 249 247 245 241 240 241 240 238 237 235 232 230 230 232 233 234 239
197 198 199 198 196 197 196 197 200 202 205 208 208 210 212 212 212 214 214 212 212 214 214 213 214 214 213 214 215 215 216 216 217 219 222 222 223 225 224 221 219 218 221 222 222 223 224 224 223 223 225 224 227 229 228 227 227 227 229 228 228 230 230 233 240 239 238 240 240 242 248 250 248 245 242 241 241 242 241 238 234 231 229 230 233 234 236 241
199 199 200 199 198 197 196 199 204 205 206 208 208 209 211 211 212 213 215 214 213 215 215 214 215 216 216 217 217 216 216 217 218 220 223 225 225 226 225 222 219 218 221 224 225 225 225 225 224 225 227 227 229 231 229 229 230 229 231 231 230 231 230 230 237 239 237 240 242 244 249 251 248 244 243 244 244 245 245 241 236 233 231 233 236 238 241 245
199 200 201 200 199 198 198 202 206 206 208 209 209 209 211 212 212 213 215 216 215 216 217 217 217 217 218 219 218 217 217 219 221 221 223 225 225 226 224 220 218 219 222 225 226 225 226 226 225 227 231 231 231 232 231 230 230 229 232 232 231 234 234 233 236 237 235 236 239 244 249 250 249 247 245 247 247 247 246 242 238 237 238 240 242 241 242 247
199 200 201 201 201 201 203 205 206 206 209 209 208 210 212 212 213 213 214 216 217 217 217 218 219 219 219 219 218 219 219 220 222 222 223 224 224 225 224 220 219 221 224 226 225 225 226 226 223 224 228 231 232 232 232 233 231 231 233 233 232 234 234 235 237 238 239 239 236 239 247 249 250 251 250 250 249 247 246 243 240 241 243 245 244 242 245 249
198 200 201 202 202 203 206 207 205 205 207 207 207 210 211 212 214 214 214 216 217 217 218 219 220 219 219 219 219 220 221 221 222 222 223 224 224 226 225 223 223 225 229 229 225 224 227 227 224 222 224 226 228 230 232 233 232 233 234 233 233 232 231 234 238 238 241 242 237 238 245 250 251 252 253 251 249 247 247 246 245 245 245 245 244 244 248 250
198 200 201 202 204 205 207 207 205 206 208 207 208 211 211 212 215 216 214 215 218 218 218 220 221 220 220 219 219 220 222 224 224 223 222 223 225 227 226 225 225 227 230 228 222 223 228 230 228 226 227 229 230 232 234 232 231 233 234 232 232 233 233 234 236 237 240 242 241 242 244 247 250 251 251 250 248 249 250 248 247 247 247 246 245 247 251 255
198 201 202 202 204 206 208 208 207 208 210 209 210 212 212 212 214 216 216 217 217 217 219 221 221 221 220 219 219 221 221 223 225 224 223 223 225 227 227 225 225 227 229 226 223 224 228 231 230 230 232 233 233 233 234 232 231 232 232 232 232 233 232 232 234 238 238 239 244 245 243 244 248 249 249 250 251 253 252 246 244 246 246 245 247 252 257 259
200 201 202 204 205 207 208 208 208 209 211 211 212 213 212 212 214 215 217 218 218 218 219 221 223 223 221 219 220 222 221 222 225 225 225 225 225 226 227 226 226 227 227 226 227 227 228 231 232 232 234 235 234 235 234 233 234 234 232 232 232 232 232 233 237 239 237 239 246 246 241 244 248 248 250 251 251 251 249 245 244 246 246 246 251 258 261 261
202 201 202 204 205 208 209 207 206 209 211 212 214 214 213 214 215 216 217 217 219 220 219 220 223 223 221 221 222 222 222 223 224 225 225 225 225 225 226 226 227 227 226 225 228 229 229 232 233 232 234 236 235 236 236 235 236 236 234 233 232 232 233 235 239 240 239 243 247 245 244 247 249 249 251 252 252 251 249 248 247 248 250 252 257 260 260 259
203 203 203 202 203 207 208 206 206 209 212 213 215 217 216 216 216 217 219 218 219 221 220 220 222 222 221 222 223 224 225 224 225 226 225 225 227 227 227 227 227 228 227 226 228 230 230 233 233 232 235 237 237 237 237 237 238 238 238 237 235 235 236 238 240 241 242 246 248 247 250 253 253 252 253 254 252 251 250 250 250 252 254 256 258 259 258 258
204 205 204 202 204 207 207 207 207 209 211 213 215 217 218 218 218 218 221 223 222 221 221 220 221 223 224 224 224 224 225 224 224 224 224 224 226 228 230 229 227 226 228 228 229 230 230 232 234 233 234 238 239 237 237 239 241 241 240 238 236 237 239 241 243 243 243 246 248 249 252 254 253 252 254 254 252 251 250 251 252 254 256 256 257 257 257 258
205 206 206 204 206 209 208 207 207 209 212 213 215 217 219 219 218 218 222 226 226 224 223 221 221 223 225 225 225 223 221 220 221 223 224 225 226 226 228 229 227 226 228 228 230 231 229 230 233 232 233 239 241 238 236 239 241 242 242 239 238 240 243 245 247 247 245 246 247 249 252 254 252 251 253 254 254 253 252 252 252 254 255 256 256 256 257 259